[[{"header":{"parameterUnit":"m.s-1","parameterCategory":2,"la1":30.2992,"la2":30.254,"lo1":-89.0895,"lo2":-89.0443,"dy":0.0025,"dx":0.0025,"nx":19,"ny":19,"refTime":"2026-03-21T09:00:00:Z","depth":"0","parameterNumber":2,"parameterNumberName":"U-component_of_CURRENTS"},"data":[0,0,0,0.0364,0.0365,0.0396,0.0396,0.0514,0.0515,0,0,0,0,0,0,0,0,0,0,0,0.033,0.0329,0.0364,0.0365,0.0396,0.0396,0.0513,0.0515,0,0,0,0,0,0,0,0,0,0,0,0.033,0.0329,0.0329,0.0365,0.0396,0.0396,0.0513,0.0472,0,0,0,0,0,0,0,0,0,0,0.0432,0.0378,0.033,0.0329,0.0365,0.0396,0.0396,0.0469,0.0474,0.052,0,0.0499,0,0.052,0.0524,0.0524,0,0,0,0.0371,0.0373,0.0394,0.0329,0.0365,0.0396,0.0383,0.0471,0.0478,0.0527,0.0501,0.0506,0.0522,0.0525,0.0525,0.0625,0.0625,0,0,0.0369,0.0335,0.0389,0.0397,0.0343,0.0382,0.0384,0.0474,0.0463,0.0502,0.0509,0.0524,0.0526,0.0527,0.0625,0.0625,0,0,0,0.036,0.0333,0.0349,0.0391,0.0396,0.0383,0.0385,0.0458,0.0466,0.051,0.0525,0.0526,0.0528,0.0625,0.0625,0.0558,0,0,0,0.0359,0.0328,0.0348,0.0328,0.0393,0.0416,0.0367,0.0459,0.047,0.0525,0.0527,0.0529,0.0625,0.0625,0.056,0.0553,0,0,0,0.0334,0.0326,0.0322,0.0326,0.0341,0.0415,0.0427,0.0461,0.048,0.0525,0.053,0.0625,0.0625,0.0561,0.0555,0.0544,0,0,0,0.0311,0.0323,0.032,0.0359,0.034,0.0409,0.0426,0.0482,0.052,0.0527,0.0625,0.0625,0.0562,0.0557,0.0546,0.0607,0.0606,0,0,0.0332,0.0324,0.0361,0.0361,0.0379,0.0407,0.0451,0.0502,0.0537,0.0602,0.0604,0.0559,0.0556,0.0545,0.0616,0.0615,0,0,0,0.0376,0.0364,0.0378,0.0386,0.0438,0.0435,0.0496,0.0509,0.0539,0.0557,0.0582,0.0583,0.0577,0.0617,0.0616,0.0687,0.0626,0.0626,0.0626,0.0309,0.0359,0.0367,0.04,0.0434,0.0469,0.0476,0.0504,0.0551,0.0545,0.0543,0.0514,0.0556,0.0556,0.0628,0.0549,0.0549,0.0549,0.0549,0.0287,0.0316,0.0324,0.0346,0.0365,0.0403,0.0453,0.0462,0.0484,0.0515,0.0512,0.0565,0.0552,0.0629,0.0545,0.0546,0.0546,0.0547,0.0547,0.0259,0.0278,0.0279,0.0294,0.0298,0.035,0.0365,0.0399,0.0432,0.0427,0.0503,0.0506,0.0562,0.0432,0.0432,0.0432,0.0432,0.0432,0.0432,0.0244,0.0246,0.0246,0.0252,0.0259,0.0275,0.0331,0.0357,0.0425,0.0463,0.0464,0.0576,0.048,0.0471,0.0431,0.0431,0.0431,0.0431,0.0431,0.0281,0.0272,0.0252,0.0252,0.0252,0.0268,0.031,0.0386,0.0423,0.0457,0.0592,0.0482,0.0518,0.0521,0.0515,0.0489,0.0489,0.0489,0.0489,0.0301,0.0302,0.0258,0.0257,0.0263,0.0273,0.0321,0.0374,0.0518,0.0607,0.0654,0.0694,0.0688,0.0736,0.0734,0.0734,0.0763,0.0764,0.0764,0.0323,0.0286,0.0276,0.026,0.0268,0.0281,0.0307,0.0376,0.0619,0.078,0.0737,0.0725,0.0787,0.0773,0.0852,0.0843,0.0844,0,0]},{"header":{"parameterUnit":"m.s-1","parameterCategory":2,"la1":30.2992,"la2":30.254,"lo1":-89.0895,"lo2":-89.0443,"dy":0.0025,"dx":0.0025,"nx":19,"ny":19,"refTime":"2026-03-21T09:00:00:Z","depth":"0","parameterNumber":3,"parameterNumberName":"V-component_of_CURRENTS"},"data":[0,0,0,-0.0094,-0.0091,-0.0019,-0.002,-0.0007,-0.0006,0,0,0,0,0,0,0,0,0,0,0,-0.0166,-0.0165,-0.0094,-0.009,-0.0019,-0.002,-0.0007,-0.0006,0,0,0,0,0,0,0,0,0,0,0,-0.0166,-0.0165,-0.0164,-0.009,-0.0019,-0.002,-0.0007,-0.0055,0,0,0,0,0,0,0,0,0,0,-0.0121,-0.0122,-0.0165,-0.0164,-0.0089,-0.0019,-0.002,-0.0057,-0.0052,-0.0043,0,-0.0023,0,0.0032,-0.0002,-0.0002,0,0,0,-0.0148,-0.0126,-0.0119,-0.0164,-0.0088,-0.0019,-0.0068,-0.0054,-0.0049,-0.0037,-0.0022,-0.0019,0.0033,-0.0002,-0.0001,0.0039,0.0039,0,0,-0.0152,-0.0144,-0.0123,-0.0115,-0.0056,-0.007,-0.0065,-0.0051,-0.0033,-0.0022,-0.0018,0.0033,-0.0001,-0.0001,0.0039,0.0039,0,0,0,-0.0124,-0.0146,-0.014,-0.0118,-0.0072,-0.0066,-0.0061,-0.0035,-0.0036,-0.0017,0.0033,-0.0001,0.0,0.0039,0.0039,0.0094,0,0,0,-0.013,-0.0126,-0.0141,-0.0135,-0.0071,-0.0028,-0.0045,-0.0039,-0.0033,0.0033,-0.0001,0.0001,0.0039,0.0039,0.0092,0.0112,0,0,0,-0.0171,-0.0128,-0.0121,-0.0135,-0.0073,-0.0028,-0.0029,-0.0038,0.0001,-0.0002,0.0001,0.004,0.0039,0.0091,0.0109,0.0124,0,0,0,-0.0168,-0.0131,-0.0121,-0.0065,-0.0073,-0.0012,-0.0029,0.0019,0.0023,-0.0,0.0039,0.0039,0.0091,0.0108,0.0122,0.0169,0.0179,0,0,-0.0123,-0.0125,-0.0097,-0.0085,-0.0013,-0.0027,0.004,0.0041,0.0016,0.002,0.0021,0.0093,0.0109,0.0123,0.0162,0.0173,0,0,0,-0.0085,-0.0068,-0.0042,0.0002,0.0039,0.0069,0.0085,0.0076,0.0061,0.0032,0.0075,0.0083,0.0091,0.0116,0.0124,0.0147,0.0039,0.0039,0.0039,-0.004,-0.0031,0.0025,0.0047,0.0082,0.0136,0.0143,0.0123,0.011,0.0098,0.0115,0.0144,0.0171,0.0177,0.0201,0.0102,0.0102,0.0102,0.0102,0.0029,0.0056,0.0064,0.012,0.0136,0.0174,0.0187,0.0179,0.0175,0.0139,0.0144,0.0155,0.019,0.0211,0.0105,0.0105,0.0104,0.0104,0.0104,0.0051,0.0069,0.0101,0.0154,0.0187,0.0207,0.0241,0.0236,0.0207,0.0224,0.0232,0.0232,0.0261,0.0224,0.0224,0.0225,0.0225,0.0225,0.0225,0.0075,0.011,0.0135,0.019,0.021,0.0241,0.0271,0.0281,0.0293,0.0287,0.0287,0.0275,0.0181,0.0188,0.0227,0.0227,0.0227,0.0226,0.0226,0.012,0.0113,0.0165,0.019,0.0261,0.0333,0.0346,0.039,0.0383,0.0397,0.0388,0.0316,0.03,0.0293,0.0302,0.0368,0.0368,0.0368,0.0368,0.0121,0.0126,0.019,0.0244,0.0315,0.0382,0.0488,0.0512,0.0488,0.0485,0.0459,0.0452,0.0445,0.0436,0.0426,0.0436,0.0535,0.0535,0.0536,0.014,0.0153,0.0193,0.0252,0.0351,0.0448,0.0577,0.0644,0.0588,0.0542,0.0485,0.0478,0.0464,0.0452,0.0431,0.0415,0.0428,0,0]}],[{"header":{"parameterUnit":"m.s-1","parameterCategory":2,"la1":30.2992,"la2":30.254,"lo1":-89.0895,"lo2":-89.0443,"dy":0.0025,"dx":0.0025,"nx":19,"ny":19,"refTime":"2026-03-21T09:00:00:Z","depth":"2","parameterNumber":2,"parameterNumberName":"U-component_of_CURRENTS"},"data":[0,0,0,-0.0231,-0.0231,-0.0121,-0.0119,0.0072,0.0073,0,0,0,0,0,0,0,0,0,0,0,-0.024,-0.024,-0.0231,-0.0231,-0.0121,-0.0119,0.0072,0.0073,0,0,0,0,0,0,0,0,0,0,0,-0.0239,-0.024,-0.024,-0.0231,-0.0121,-0.0119,0.0072,-0.0008,0,0,0,0,0,0,0,0,0,0,-0.0114,-0.0197,-0.024,-0.024,-0.0231,-0.0121,-0.0119,-0.0011,-0.0003,0.0015,0,0.0007,0,0.0001,0.0081,0.0081,0,0,0,-0.0163,-0.0205,-0.0151,-0.024,-0.0231,-0.0122,-0.0151,-0.0006,0.0003,0.0026,0.0009,0.0015,0.0004,0.0082,0.0082,0.0155,0.0155,0,0,-0.0169,-0.0233,-0.0158,-0.0146,-0.0235,-0.0155,-0.0149,-0.0,-0.0019,0.001,0.0019,0.0007,0.0082,0.0083,0.0155,0.0155,0,0,0,-0.0232,-0.0238,-0.0187,-0.0152,-0.0161,-0.0154,-0.0146,-0.0024,-0.0002,0.0021,0.0009,0.0083,0.0084,0.0155,0.0155,0.0179,0,0,0,-0.0232,-0.0279,-0.019,-0.0229,-0.0165,-0.0114,-0.0174,-0.001,0.0005,0.0008,0.0083,0.0085,0.0156,0.0155,0.0178,0.015,0,0,0,-0.0239,-0.0282,-0.0272,-0.0232,-0.0216,-0.0116,-0.0082,-0.0005,-0.0005,0.0081,0.0086,0.0156,0.0155,0.0178,0.015,0.0132,0,0,0,-0.0298,-0.0223,-0.0274,-0.0173,-0.0218,-0.0086,-0.0083,0.0048,0.0136,0.0084,0.0155,0.0155,0.0178,0.015,0.0133,0.0149,0.0148,0,0,-0.0202,-0.0216,-0.0133,-0.0174,-0.0119,-0.0094,0.0003,0.0124,0.0123,0.0122,0.0125,0.0178,0.015,0.0132,0.0141,0.014,0,0,0,-0.0095,-0.0099,-0.0076,-0.0064,0.0011,0.0003,0.01,0.0132,0.0176,0.0152,0.0169,0.0149,0.0138,0.0149,0.0148,0.0155,0.0155,0.0155,0.0155,-0.0128,-0.0057,-0.0019,0.0012,0.0068,0.0111,0.0138,0.0171,0.0212,0.0223,0.0163,0.0152,0.0166,0.0165,0.0177,0.0177,0.0177,0.0177,0.0177,-0.0076,-0.0026,-0.0033,0.0029,0.0029,0.0103,0.0152,0.0178,0.0158,0.019,0.0179,0.0166,0.0166,0.0179,0.0179,0.0179,0.0178,0.0178,0.0178,-0.0091,-0.006,-0.0043,0.0003,0.0024,0.0079,0.0109,0.0126,0.0143,0.012,0.0141,0.0141,0.0148,0.0144,0.0143,0.0143,0.0143,0.0143,0.0143,-0.0086,-0.0073,-0.0065,-0.0036,-0.0014,0.0028,0.0088,0.0092,0.0123,0.013,0.0131,0.014,0.0141,0.0144,0.014,0.014,0.0141,0.0141,0.0141,-0.0033,-0.0054,-0.0038,-0.0031,0.0002,0.0034,0.0086,0.0136,0.0135,0.0142,0.0127,0.0128,0.011,0.0111,0.0112,0.01,0.01,0.01,0.01,-0.0026,-0.0027,-0.0028,-0.0006,0.0028,0.0049,0.0115,0.0077,0.0054,-0.0016,-0.0012,0.001,0.0016,-0.0008,-0.0004,-0.0005,-0.0049,-0.005,-0.005,-0.0031,-0.0035,-0.0022,-0.0001,0.004,0.0077,0.0097,0.0078,-0.0007,-0.0063,-0.0107,0.0103,0.0152,0.0154,0.0131,0.0132,0.0135,0,0]},{"header":{"parameterUnit":"m.s-1","parameterCategory":2,"la1":30.2992,"la2":30.254,"lo1":-89.0895,"lo2":-89.0443,"dy":0.0025,"dx":0.0025,"nx":19,"ny":19,"refTime":"2026-03-21T09:00:00:Z","depth":"2","parameterNumber":3,"parameterNumberName":"V-component_of_CURRENTS"},"data":[0,0,0,-0.0128,-0.0125,-0.0043,-0.0043,-0.002,-0.0019,0,0,0,0,0,0,0,0,0,0,0,-0.0205,-0.0204,-0.0129,-0.0124,-0.0043,-0.0043,-0.002,-0.0019,0,0,0,0,0,0,0,0,0,0,0,-0.0205,-0.0204,-0.0203,-0.0124,-0.0043,-0.0043,-0.002,-0.0075,0,0,0,0,0,0,0,0,0,0,-0.015,-0.0144,-0.0205,-0.0203,-0.0123,-0.0043,-0.0044,-0.0078,-0.0072,-0.0062,0,-0.0041,0,0.0018,-0.0014,-0.0014,0,0,0,-0.0182,-0.0149,-0.0151,-0.0203,-0.0121,-0.0043,-0.0096,-0.0074,-0.0068,-0.0054,-0.004,-0.0037,0.0018,-0.0014,-0.0013,0.002,0.0019,0,0,-0.0186,-0.0169,-0.0155,-0.0147,-0.0089,-0.0098,-0.0093,-0.007,-0.0045,-0.004,-0.0035,0.0018,-0.0013,-0.0013,0.002,0.002,0,0,0,-0.0161,-0.0172,-0.0175,-0.015,-0.0102,-0.0094,-0.0088,-0.0047,-0.0055,-0.0034,0.0019,-0.0013,-0.0012,0.002,0.002,0.0066,0,0,0,-0.0166,-0.0153,-0.0176,-0.0163,-0.0101,-0.0045,-0.0066,-0.0059,-0.0051,0.0019,-0.0013,-0.0011,0.002,0.002,0.0065,0.008,0,0,0,-0.0211,-0.0155,-0.015,-0.0163,-0.0098,-0.0045,-0.0052,-0.0057,-0.0016,-0.0014,-0.0011,0.002,0.002,0.0065,0.0079,0.0067,0,0,0,-0.0195,-0.0164,-0.0149,-0.0097,-0.0098,-0.0044,-0.0052,-0.0005,0.0,-0.0012,0.002,0.002,0.0064,0.0078,0.0066,0.0061,0.0063,0,0,-0.0156,-0.0158,-0.0135,-0.0118,-0.0054,-0.006,0.0003,0.0008,-0.0011,-0.0002,-0.0001,0.0066,0.0079,0.0067,0.0034,0.0036,0,0,0,-0.0123,-0.0107,-0.0082,-0.0037,-0.0005,0.0026,0.0046,0.0037,0.0023,0.0005,0.0043,0.0049,0.004,0.0035,0.0037,0.0018,0.0018,0.0018,0.0018,-0.0084,-0.0076,-0.0023,-0.0003,0.0031,0.0084,0.0088,0.0069,0.0063,0.0047,0.0071,0.007,0.0065,0.0066,0.0053,0.0053,0.0054,0.0054,0.0054,-0.0028,-0.0003,0.001,0.0062,0.0077,0.0113,0.0122,0.0114,0.0099,0.0079,0.0068,0.0064,0.0071,0.0057,0.0056,0.0056,0.0056,0.0055,0.0055,-0.0014,0.0005,0.0036,0.0088,0.012,0.0141,0.0166,0.0159,0.0122,0.0129,0.0092,0.0091,0.0099,0.0117,0.0117,0.0117,0.0117,0.0117,0.0117,0.0001,0.0036,0.0062,0.0116,0.0138,0.0167,0.0188,0.018,0.015,0.0128,0.0128,0.009,0.0088,0.01,0.0118,0.0117,0.0117,0.0117,0.0117,0.0043,0.0035,0.0087,0.0113,0.0184,0.0237,0.0247,0.0234,0.0198,0.0177,0.0117,0.0117,0.0094,0.0092,0.0102,0.0119,0.0119,0.0119,0.0119,0.0043,0.0047,0.0115,0.0168,0.0233,0.0278,0.0312,0.0226,0.0137,0.0056,0.0058,0.0049,0.0051,0.0025,0.0024,0.0032,0.003,0.003,0.003,0.0065,0.0078,0.0123,0.0179,0.0268,0.0329,0.0343,0.024,0.0075,0.0024,0.0016,0.0118,0.0113,0.0112,0.0077,0.0074,0.0089,0,0]}],[{"header":{"parameterUnit":"m.s-1","parameterCategory":2,"la1":30.2992,"la2":30.254,"lo1":-89.0895,"lo2":-89.0443,"dy":0.0025,"dx":0.0025,"nx":19,"ny":19,"refTime":"2026-03-21T09:00:00:Z","depth":"4","parameterNumber":2,"parameterNumberName":"U-component_of_CURRENTS"},"data":[0,0,0,-0.0756,-0.0757,-0.0944,-0.0946,-0.1262,-0.1264,0,0,0,0,0,0,0,0,0,0,0,-0.0757,-0.0758,-0.0756,-0.0757,-0.0944,-0.0946,-0.1262,-0.1264,0,0,0,0,0,0,0,0,0,0,0,-0.0757,-0.0758,-0.0759,-0.0757,-0.0943,-0.0946,-0.1261,-0.1123,0,0,0,0,0,0,0,0,0,0,-0.0941,-0.0888,-0.0757,-0.0759,-0.0757,-0.0943,-0.0946,-0.1116,-0.1131,-0.1172,0,-0.1191,0,-0.1167,-0.1279,-0.128,0,0,0,-0.0847,-0.0875,-0.0907,-0.0759,-0.0758,-0.0942,-0.0885,-0.1125,-0.1142,-0.1192,-0.1194,-0.1204,-0.1172,-0.128,-0.1281,-0.1656,-0.1658,0,0,-0.0837,-0.0816,-0.0895,-0.0917,-0.0794,-0.0878,-0.0889,-0.1135,-0.1159,-0.1195,-0.121,-0.1177,-0.1282,-0.1284,-0.1654,-0.1657,0,0,0,-0.0746,-0.0809,-0.0837,-0.0907,-0.0896,-0.0881,-0.0895,-0.1151,-0.1155,-0.1212,-0.1181,-0.1283,-0.1286,-0.1651,-0.1655,-0.1674,0,0,0,-0.0745,-0.0749,-0.0832,-0.0826,-0.089,-0.1006,-0.0905,-0.1142,-0.1165,-0.1179,-0.1283,-0.1288,-0.1648,-0.1653,-0.1668,-0.1596,0,0,0,-0.0751,-0.0748,-0.0763,-0.0823,-0.0853,-0.1001,-0.1025,-0.1148,-0.1141,-0.128,-0.1289,-0.1646,-0.1652,-0.1662,-0.1591,-0.1508,0,0,0,-0.0736,-0.0757,-0.0764,-0.0787,-0.085,-0.0943,-0.1023,-0.116,-0.1282,-0.1284,-0.1648,-0.1654,-0.166,-0.1587,-0.1507,-0.1155,0,0,0,-0.0747,-0.0759,-0.0771,-0.0777,-0.0827,-0.0925,-0.1092,-0.13,-0.1396,-0.1581,-0.1591,-0.167,-0.159,-0.1508,-0.1508,0,0,0,0,-0.0763,-0.0772,-0.0793,-0.0821,-0.0887,-0.1061,-0.1218,-0.1335,-0.1611,-0.1473,-0.1785,-0.1734,-0.1679,-0.148,-0.1683,-0.1682,-0.1681,-0.1681,-0.168,-0.0765,-0.0783,-0.0819,-0.0882,-0.0969,-0.119,-0.1345,-0.1562,-0.1652,-0.182,-0.1838,-0.1903,-0.1714,-0.1983,-0.1983,-0.1984,-0.1984,-0.1984,-0.1984,-0.074,-0.0761,-0.0835,-0.0896,-0.108,-0.1279,-0.155,-0.169,-0.1849,-0.196,-0.1907,-0.1631,-0.1989,-0.1988,-0.1987,-0.1987,-0.1986,-0.1986,-0.1986,-0.0712,-0.0735,-0.0791,-0.0899,-0.1165,-0.1433,-0.1603,-0.1805,-0.1867,-0.1854,-0.162,-0.1877,-0.1763,-0.1861,-0.186,-0.186,-0.1859,-0.1859,-0.1858,-0.0675,-0.0721,-0.079,-0.0953,-0.1112,-0.1376,-0.1657,-0.1627,-0.1701,-0.1561,-0.186,-0.1858,-0.1863,-0.1758,-0.185,-0.1851,-0.1852,-0.1853,-0.1854,-0.0625,-0.0697,-0.0736,-0.0846,-0.1068,-0.1219,-0.1497,-0.1365,-0.124,-0.1079,-0.1368,-0.1394,-0.1307,-0.1323,-0.1194,-0.1122,-0.1117,-0.1113,0,-0.0627,-0.0647,-0.0686,-0.0731,-0.0795,-0.107,-0.0912,-0.0905,-0.0913,-0.0898,-0.1179,-0.1512,-0.1528,-0.1441,-0.1448,-0.1302,0,0,0,-0.0606,-0.0621,-0.0594,-0.0589,-0.065,-0.0652,-0.0845,-0.0752,-0.0998,-0.0743,-0.1002,-0.1031,-0.1465,-0.1824,-0.175,-0.1755,-0.1579,0,0]},{"header":{"parameterUnit":"m.s-1","parameterCategory":2,"la1":30.2992,"la2":30.254,"lo1":-89.0895,"lo2":-89.0443,"dy":0.0025,"dx":0.0025,"nx":19,"ny":19,"refTime":"2026-03-21T09:00:00:Z","depth":"4","parameterNumber":3,"parameterNumberName":"V-component_of_CURRENTS"},"data":[0,0,0,-0.0051,-0.0052,-0.0055,-0.0055,0.0021,0.0022,0,0,0,0,0,0,0,0,0,0,0,-0.0043,-0.0043,-0.0051,-0.0052,-0.0055,-0.0055,0.0021,0.0022,0,0,0,0,0,0,0,0,0,0,0,-0.0043,-0.0043,-0.0043,-0.0052,-0.0055,-0.0055,0.0021,0.0008,0,0,0,0,0,0,0,0,0,0,0.0003,-0.0006,-0.0043,-0.0043,-0.0052,-0.0055,-0.0055,0.0006,0.0009,0.0041,0,0.0031,0,0.002,0.0027,0.0028,0,0,0,-0.0035,-0.0008,-0.0015,-0.0043,-0.0052,-0.0055,-0.0049,0.0007,0.001,0.0044,0.0032,0.0034,0.0021,0.0028,0.0028,0.0147,0.0148,0,0,-0.0034,-0.0033,-0.0017,-0.0014,-0.0063,-0.0049,-0.0049,0.0008,0.0012,0.0032,0.0035,0.0022,0.0029,0.0029,0.0147,0.0148,0,0,0,-0.0045,-0.0033,-0.0042,-0.0016,-0.0028,-0.0049,-0.005,0.0009,0.0004,0.0036,0.0023,0.0029,0.003,0.0146,0.0147,0.0126,0,0,0,-0.0044,-0.0041,-0.0042,-0.004,-0.003,-0.0021,-0.0049,0.0001,0.0006,0.0023,0.0029,0.0031,0.0145,0.0146,0.0125,0.0065,0,0,0,-0.0041,-0.004,-0.0046,-0.004,-0.0051,-0.0023,-0.0024,0.0001,-0.0002,0.0028,0.0031,0.0145,0.0146,0.0124,0.0065,0.0062,0,0,0,-0.0032,-0.0047,-0.0046,-0.0079,-0.0051,-0.0084,-0.0025,-0.0018,0.0003,0.0029,0.0145,0.0147,0.0123,0.0066,0.0062,-0.0015,0,0,0,-0.0047,-0.0048,-0.0074,-0.0074,-0.0129,-0.0082,-0.0089,-0.0021,0.0049,0.0133,0.0135,0.0125,0.0065,0.0062,0.0086,0,0,0,0,-0.0078,-0.009,-0.0111,-0.0143,-0.0164,-0.016,-0.0094,-0.003,0.009,0.0066,0.0165,0.0128,0.0126,0.0086,0.0155,0.0155,0.0155,0.0154,0.0154,-0.0094,-0.0123,-0.0169,-0.0198,-0.0218,-0.0186,-0.0153,-0.0038,0.0055,0.0135,0.0143,0.0162,0.0124,0.0207,0.0207,0.0207,0.0207,0.0207,0.0207,-0.0131,-0.017,-0.0201,-0.0248,-0.0265,-0.0251,-0.0155,-0.0064,0.0067,0.015,0.0152,0.0106,0.0206,0.0206,0.0206,0.0206,0.0206,0.0206,0.0206,-0.0156,-0.0176,-0.0204,-0.0277,-0.0296,-0.0263,-0.0222,-0.009,0.0033,0.0049,0.0065,0.0139,0.0103,0.0108,0.0108,0.0108,0.0108,0.0107,0.0107,-0.0172,-0.02,-0.0249,-0.0302,-0.0343,-0.0318,-0.0228,-0.0187,-0.006,0.0002,0.0076,0.0128,0.0131,0.0098,0.0103,0.0104,0.0105,0.0105,0.0105,-0.0205,-0.0212,-0.0291,-0.0343,-0.0411,-0.0387,-0.0324,-0.0249,-0.0213,-0.0185,-0.0028,-0.002,-0.0032,-0.0025,-0.0064,-0.0107,-0.0108,-0.0109,0,-0.0226,-0.0231,-0.032,-0.0393,-0.0446,-0.0417,-0.0397,-0.0356,-0.0238,-0.0192,-0.0202,-0.0023,-0.0017,-0.0029,-0.0025,-0.0071,0,0,0,-0.0249,-0.0273,-0.0325,-0.0382,-0.0443,-0.0399,-0.0372,-0.0342,-0.0241,-0.029,-0.0136,-0.0129,-0.0112,0.0092,0.0092,0.0095,0.0042,0,0]}]]